CZ-6A DEB, 60213

Orbit data source: Space-Track

CZ-6A DEB, 60213 is space debris in SSO originally from a launch on Thu, 04 Jul 2024 UTC launched from the Taiyaun Space Center, China (TSC). Debris objects in space refer to the collection of defunct objects orbiting the Earth. Examples of debris include non-operational satellites, rocket bodies, and fragments generated from explosions, collisions, or faulty payload assembly.

Loading next visibility...
Identifier
60213, 2024-126C
Orbit
SSO
Country
Flag of CNCN / PRC
Related business
Manufacturer
SAST
Mission
Spacecraft
Bus & Motor
Unknown
Mass
~50 kg wet, ~50 kg dry
Launch date (UTC)
2024-07-04 (1 year ago)
Launch vehicle
Unknown
Launch site
Taiyaun Space Center, China (TSC)
Object type
Payload
Rocket body
Debris
Shape & HBR
Unknown
Radar Cross Section
Large (>1 m²)

Expand to show TLE details & history
Last TLE update: 14 hours ago

TLE from 14 hours ago
0 CZ-6A DEB
1 60213U 24126C   25242.79066883  .00018249  00000-0  14132-2 0  9996
2 60213  97.8333 254.2163 0005467 171.2920 188.8400 15.01481945 63022
Epoch: 2025-08-30T18:58Z
TLE epoch observation values (Epoch: 2025-08-30T18:58:33.786Z)
Latitude
-0.00001°
Longitude
-9.64438°
Altitude
569.129 km
Speed
7.574 km/s
True Right ascension
16h 56m 51s
True Declination
0° 00' 00"
Sunlit
Object was in daylight at epoch
Visualization orbit readout
Latitude
Unknown
Longitude
Unknown
Altitude
Unknown
Speed
Unknown
Apparent Right ascension
Unknown
Apparent Declination
Unknown
Sunlit
N/A
Visualization observer readout
Local Sidereal Time
00:49:23
Azimuth
Unknown
Elevation
Unknown
Doppler factor
Unknown
Orbital elements
Apogee altitude
563.128 km
Perigee altitude
555.542 km
Semi-major axis
6,937.472 km
Eccentricity
0.00055
Inclination
97.8333°
RAAN
254.2163°
Arg. of periapsis
171.292°
True anomaly
188.83038°
Mean anomaly
188.84°
Eccentric anomaly
188.83519°
Mean motion
3.75614 °/min
Orbital period
95.84 mins
BSTAR
0.0014132
Loading maneuver chart data...
Computing Atmospheric mass density...
Loading historical data...
Loading historical data...
Loading historical data...
Loading historical data...
Loading historical data...
Loading historical data...
Loading historical data...
Other satellites on launch #126 in the year 2024 (2024-07-04 UTC)

Documentation

Showing up to 5 results
|